Location: Newark
(13.6797°N, 8.5297°E)
Time: 18:13:48
(UTC+00:00)

A-11 Canister half - Visible Passes

Search period start: 29 January 2020 00:00
Search period end: 08 February 2020 00:00
Orbit: 1517 x 1683 km, 47.2° (Epoch: 28 January)

Date Brightness Start Highest point End Pass type
(mag) Time Alt. Az. Time Alt. Az. Time Alt. Az.
29 Jan 10.8 03:36:41 10° N 03:42:07 17° NE 03:47:42 10° ENE visible
29 Jan 9.3 18:37:35 10° SSW 18:46:58 48° SE 18:51:18 31° ENE visible
29 Jan 10.0 20:42:51 10° WSW 20:49:33 36° WNW 20:49:33 36° WNW visible
30 Jan 10.8 03:15:17 12° N 03:19:04 16° NNE 03:24:10 10° ENE visible
30 Jan 9.3 05:15:51 10° NW 05:25:05 68° NE 05:34:32 10° SE visible
30 Jan 9.5 18:14:49 10° SSW 18:24:04 44° SE 18:30:17 21° ENE visible
30 Jan 9.7 20:19:43 10° WSW 20:28:32 44° NW 20:28:32 44° NW visible
31 Jan 10.8 02:53:56 13° NNE 02:56:01 14° NNE 03:00:35 10° ENE visible
31 Jan 9.4 04:53:01 10° NNW 05:02:10 63° NE 05:11:32 10° SE visible
31 Jan 9.6 17:52:04 10° SSW 18:01:09 40° SE 18:09:16 12° ENE visible
31 Jan 9.5 19:56:35 10° WSW 20:05:56 48° NW 20:07:31 44° NNW visible
01 Feb 10.9 02:32:39 13° NNE 02:32:56 13° NNE 02:36:53 10° ENE visible
01 Feb 9.4 04:30:53 13° NNW 04:39:15 58° NE 04:48:31 10° ESE visible
01 Feb 9.7 17:29:20 10° SSW 17:38:15 37° SE 17:46:51 10° ENE visible
01 Feb 9.5 19:33:29 10° WSW 19:42:59 52° NW 19:46:31 37° N visible
02 Feb 11.0 02:11:25 12° NE 02:11:25 12° NE 02:13:05 10° NE visible
02 Feb 9.5 04:09:39 19° NNW 04:16:20 53° NE 04:25:28 10° ESE visible
02 Feb 9.5 19:10:24 10° WSW 19:20:03 56° NW 19:25:29 27° NNE visible
02 Feb 11.1 21:22:28 10° NW 21:23:44 12° NW 21:23:44 12° NW visible
03 Feb 9.5 03:48:29 27° NNW 03:53:25 49° NE 04:02:24 10° ESE visible
03 Feb 9.4 18:47:20 10° SW 18:57:06 61° NW 19:04:26 19° NNE visible
03 Feb 10.9 20:58:43 10° WNW 21:02:41 14° NW 21:02:41 14° NW visible
04 Feb 9.6 03:27:22 35° N 03:30:29 45° NE 03:39:19 10° ESE visible
04 Feb 9.5 05:26:42 10° WNW 05:35:10 40° SW 05:43:51 10° SSE visible
04 Feb 9.4 18:24:17 10° SW 18:34:10 66° NW 18:43:21 11° NNE visible
04 Feb 10.8 20:35:03 10° WNW 20:40:20 16° NNW 20:41:36 15° NNW visible
05 Feb 9.6 03:06:18 40° NNE 03:07:33 42° NE 03:16:13 10° ESE visible
05 Feb 9.4 05:04:32 13° WNW 05:12:16 44° SW 05:21:07 10° SSE visible
05 Feb 9.3 18:01:17 10° SW 18:11:14 71° NW 18:20:51 10° NE visible
05 Feb 10.8 20:11:28 10° WNW 20:17:15 17° NW 20:20:27 14° N visible
06 Feb 9.8 02:45:15 38° NE 02:45:15 38° NE 02:53:05 10° ESE visible
06 Feb 9.2 04:43:30 22° WNW 04:49:24 48° SW 04:58:22 10° SSE visible
06 Feb 9.3 17:38:16 10° SW 17:48:17 76° NW 17:57:59 10° NE visible
06 Feb 10.8 19:47:56 10° WNW 19:54:11 18° NW 19:59:17 12° N visible
07 Feb 10.2 02:24:13 31° ENE 02:24:13 31° ENE 02:29:57 10° ESE visible
07 Feb 9.1 04:22:29 33° WNW 04:26:31 53° SW 04:35:35 10° SSE visible
07 Feb 10.8 19:24:27 10° W 19:31:08 20° NW 19:37:43 10° N visible
